Location: Unspecified
(0.0000°N, 0.0000°E)
Time: 23:11:18
(UTC+00:00)

Courier 1B Rocket - Pass Details

Date: 07 October 2020
Orbit: 920 x 1202 km, 28.2° (Epoch: 28 October)

Event Time Altitude Azimuth Distance (km) Brightness Sun altitude
Rises 21:45:32 0° 230° (SW) 4,086 8.6 -59.0°
Enters shadow 21:46:50 - 228° (SW) 3,663 8.3 -59.3°
Reaches altitude 10° 21:48:29 10° 225° (SW) 3,130 - -59.7°
Maximum altitude 21:56:04 52° 151° (SSE) 1,451 - -61.5°
Drops below altitude 10° 22:03:28 10° 76° (ENE) 3,061 - -63.3°
Sets 22:06:19 0° 71° (ENE) 3,990 - -64.0°
